CZ-6A DEB, 54955

Orbit data source: Space-Track

CZ-6A DEB, 54955 is space debris in SSO originally from a launch on Fri, 11 Nov 2022 UTC launched from the Taiyaun Space Center, China (TSC). Debris objects in space refer to the collection of defunct objects orbiting the Earth. Examples of debris include non-operational satellites, rocket bodies, and fragments generated from explosions, collisions, or faulty payload assembly.

Loading next visibility...
Identifier
54955, 2022-151SU
Orbit
SSO
Country
Flag of CNCN / PRC
Related business
Manufacturer
SAST
Mission
Spacecraft
Bus & Motor
Unknown
Mass
Unknown
Launch date (UTC)
2022-11-11 (3 years ago)
Launch vehicle
Unknown
Launch site
Taiyaun Space Center, China (TSC)
Object type
Payload
Rocket body
Debris
Shape & HBR
Unknown shape, 0.1 m
Radar Cross Section
Small (<0.1 m²)

Expand to show TLE details & history
Last TLE update: 15 hours ago

TLE from 15 hours ago
0 CZ-6A DEB
1 54955U 22151SU  25353.03926333  .00000586  00000-0  17832-3 0  9999
2 54955  98.5842  22.7364 0116433 150.9160 209.8581 14.42025050162836
Epoch: 2025-12-19T00:56Z
TLE epoch observation values (Epoch: 2025-12-19T00:56:32.351Z)
Latitude
-0.0001°
Longitude
-79.28452°
Altitude
827.012 km
Speed
7.402 km/s
True Right ascension
01h 30m 56s
True Declination
0° 00' 00"
Sunlit
Object was in daylight at epoch
Visualization orbit readout
Latitude
Unknown
Longitude
Unknown
Altitude
Unknown
Speed
Unknown
Apparent Right ascension
Unknown
Apparent Declination
Unknown
Sunlit
N/A
Visualization observer readout
Local Sidereal Time
15:00:53
Azimuth
Unknown
Elevation
Unknown
Doppler factor
Unknown
Orbital elements
Apogee altitude
831.921 km
Perigee altitude
665.955 km
Semi-major axis
7,127.075 km
Eccentricity
0.01164
Inclination
98.5842°
RAAN
22.7364°
Arg. of periapsis
150.916°
True anomaly
209.20215°
Mean anomaly
209.8581°
Eccentric anomaly
209.5293°
Mean motion
3.60725 °/min
Orbital period
99.8 mins
BSTAR
0.00017832
Loading maneuver chart data...
Computing Atmospheric mass density...

Documentation

Showing up to 5 results
|